カタログに戻る

WESTFORD NEEDLES

運用中HEO
NORAD 2367·DEBRIS·🇺🇸 United States

打ち上げ May 9, 1963 から Vandenberg Space Force Base

Loading…

次のパス (今後24時間)

TLE

最新Source: Space-Track

元期: Sep 9, 2026, 16:31 UTC

1 02367U 63014S   26252.68852849  .00019480  00000-0  12342-1 0  9994
2 02367  84.1290  35.5863 2870723 351.0578   4.8104  9.16019586 19701

AllMySatでWESTFORD NEEDLESをリアルタイム追跡

Download on the App Store